Погода в Бузулуке

Хотите узнать прогноз погоды в Бузулуке? Тогда Вам сюда: Погода в Бузулуке

Поиск расширенной информации на нашем сайте:

Полезная информация:

Новости сайта



02.01.2020
Опубликован Долгосрочный прогноз погоды по городам России и ближнего зарубежья на январь 2020 года.
Карты: Прогноз на январь и февраль 2020 года, Сравнение прогнозируемой аномалии приземной температуры воздуха на январь 2020 года по разным моделям.




Погода в Бузулуке - сегодня

Время (UTC), дата Ветер
(°,м/с) 
Видим.   Явления Облачность Т
(°С)
Тd
(°С)
f(%) Тe
(°С)
Pmin
(гПа)
dP
(гПа)
Po
(мм)
O2
(г/м3)
Тmin Tmax R s Состояние
почвы
09 22.02.21 030 (СВ) 10 км    8/0 верхняя 
[Ci fib]
-18.3 -22.6 69 -21  1020.4  -2.5  757  329           
12 22.02.21 030 (СВ) 10 км    ясно 
-18.6 -23.7 64 -24  1018.9  -1.5  756  329           
18 22.02.21 320 (СЗ) 10 км    ясно 
-25.5 -28.5 76 -29  1018.9  -0.6  756  338           
21 22.02.21 330 (СЗ) 10 км    ясно 
-25.4 -28.4 76 -29  1018.3  -0.6  755  337           
00 23.02.21 340 (С) 10 км    ясно 
-26.2 -30.4 68 -33  1018.7  0.3  756  339           
15 23.02.21 350 (С) 8-13{14}  10 км  позёмок  ясно 
-23.6 -29 61 -33  1023.5  1.9  759  337    -23.4       
03 24.02.21 320 (СЗ) 5{13}  10 км  позёмок  3/3 600 м 
[Sc]
-25.7 -30.7 63 -33  1026.1  1.4  761  340  -25.7      37  равномерный
сухой снег
100% 
15 24.02.21 310 (СЗ) 4{11}  10 км  позёмок  ясно 
-21.5 -27.3 59 -27  1029.7  2.4  764  336    -17.5       
18 24.02.21 300 (СЗ) 10 км    ясно 
-23.7 -28.9 62 -28  1031.8  765  340           
21 24.02.21 270 (З) 10 км    ясно 
-26 -29.9 70 -27  1032.6  0.7  766  343           
00 25.02.21 310 (СЗ) 10 км    ясно 
-27.8 -31.7 69 -33  1033.6  0.9  767  346           
06 25.02.21 160 (Ю) 10 км    ясно 
-24.4 -28.5 69 -25  1034.5  0.2  767  341           
09 25.02.21 170 (Ю) 10 км    8/0 верхняя 
[Ci fib]
-19.9 -26.9 54 -24  1032.8  -1.4  766  335           
12 25.02.21 170 (Ю) 10 км    10/0 средняя 
[As op]
-19.1 -25.1 59 -23  1030.6  -2.1  765  333           
15 25.02.21 150 (ЮВ) 4000 м  слаб. снег  10/10 360 м 
[Frnb|Ns]
-18.9 -22.8 71 -24  1028.3  -2.3  763  332    -18.6  0.0     
21 25.02.21 140 (ЮВ) 10 км  позёмок{снег}  10/5 300 м средняя 
[Sc|As op]
-17.8 -20.6 79 -22  1023.6  -2.6  760  329           
03 26.02.21 130 (ЮВ) 10 км  позёмок  9/4 300 м средняя 
[Sc|Ac trans]
-17.2 -20.2 77 -22  1020.1  -1.3  757  327  -19    40  равномерный
сухой снег
100% 
06 26.02.21 130 (ЮВ) 10 км  позёмок{снег}  4/3 600 м верхняя 
[Sc|Ci fib]
-15.7 -19.2 74 -21  1019.7  -0.3  757  325           
09 26.02.21 130 (ЮВ) 10 км  позёмок  1/0 верхняя 
[Ci sp]
-13.6 -18.6 66 -18  1019.6  757  322           
15 26.02.21 130 (ЮВ) 10 км  позёмок  3/3 600 м 
[Sc]
-14.8 -18.5 73 -19  1017.8  -1.1  755  323    -13  0.0     
18 26.02.21 140 (ЮВ) 10 км  позёмок  10/3 600 м средняя 
[Sc|As op]
-15.2 -18.2 78 -20  1014.2  -3.6  753  323           
00 27.02.21 140 (ЮВ) 6-11{11}  2000 м  снег  10/10 400 м 
[Frnb]
-11.6 -13.4 86 -17  1004.7  -4.9  746  315           
03 27.02.21 140 (ЮВ) 4{12}  10 км  слаб. снег  10/10 420 м 
[Frnb]
-10 -11.9 86 -14  1001.4  -3.2  743  312  -15.4    10  45  равномерный
сухой снег
100% 
06 27.02.21 140 (ЮВ) 10 км  позёмок{снег}  10/3 600 м средняя 
[Sc|As op]
-7.6 -9.3 88 -10  1000.5  -0.8  743  309           
09 27.02.21 150 (ЮВ) 10 км  {снег}  10/3 600 м средняя 
[Sc|As op]
-2.9 -5.3 83 -4  999.5  -0.8  742  303           
Время (UTC), дата Ветер
(°,м/с) 
Видим.   Явления Облачность Т
(°С)
Тd
(°С)
f(%) Тe
(°С)
Pmin
(гПа)
dP
(гПа)
Po
(мм)
O2
(г/м3)
Тmin Tmax R s Состояние
почвы

Для получения пояснительной информации подведите курсор к названию столбца.

ПОГОДА в Бузулуке - архив

Всё, что Вы хотите узнать о погоде в Бузулуке - удобно и подробно!

Выберите нужную дату (начиная с 1 января 2019* года) и нажмите кнопку "Найти".
Будут отображены архивные сводки погоды по пункту Бузулук, начиная с указанной даты.


Отображать данные в формате CSV (для использования в таблицах Excel)


Внимание! Наш архив погоды предназначен исключительно для личного некоммерческого использования в познавательных целях. Если Вам необходимы официальные справки о состоянии погоды (для производственных, юридических, коммерческих и т.п. целей), обращайтесь в органы Росгидромета.

*Примечание: данная дата относится к архиву по метеостанциям СССР (Россия, СНГ, Балтия).
Архив по метеостанциям Зарубежной Европы и Азии (кроме Китая) хранится 10 дней, по другим регионам земного шара (Китай, Африка, Америка, Австралия, Океания) - 1 день.

Бузулук - район местоположения метеостанции


Название, широта, долгота, высота метеостанции:
Бузулук 52.8°ш. 52.2°д. 80 м над ур. моря [Российская Федерация]

Дополнительная информация

В oтличие oт бoльшинства пoгoдных сайтoв мы публикуем пoдрoбную метеoинфoрмацию в детальнoм прoфессиoнальнoм фoрмате.

Характеристики температуры и влажнoсти вoздуха измеряются на высoте 2 м в тени вдали oт зданий и деревьев.
Скoрoсть ветра измеряется на высoте 10 м (на урoвне рoста челoвека скoрoсть ветра ниже в 1.5-2 раза). Если метеoстанция нахoдится в гoрoде или в лесу, тo скoрoсть ветра занижена на 2-4 м/с пo сравнению с oткрытым местoм. Скoрoсть ветра над акватoриями крупных рек и oзёр, а также на вершинах хoлмoв на 2-5 м/с выше, чем в oбычных услoвиях.
Атмoсфернoе давление в разных тoчках местнoсти мoжет значительнo oтличаться oт давления на метеoстанции, в зависимoсти oт услoвий рельефа (при пoдъёме на 10 м давление пoнижается примернo на 1 мм рт.ст.).